Camp Douglas, WI

6:53 PM CST on December 04, 2016 (GMT -0600)
Volk

Weather History for KVOK - December, 2014

Change the Weather History Date:

Monday, December 15, 2014

  Actual Average Record
Temperature  
Mean Temperature 44 °F -  
Max Temperature 46 °F 28 °F 50 °F (1997)
Min Temperature 42 °F 16 °F -20 °F (2010)
Degree Days  
Heating Degree Days 21    
Moisture  
Dew Point 45 °F    
Average Humidity 100    
Maximum Humidity 100    
Minimum Humidity 100    
Precipitation  
Precipitation 0.01 in - - ()
Sea Level Pressure  
Sea Level Pressure 29.83 in    
Wind  
Wind Speed 5 mph (SE)    
Max Wind Speed 12 mph    
Max Gust Speed -    
Visibility 5 miles    
Events Rain    
Averages and records for this station are not official NWS values.
T = Trace of Precipitation, MM = Missing Value Source: NWS Daily Summary

Daily Weather History Graph

Daily Weather History Graph

Search for Another Location

Airport or City:

Trip Planner

Search our weather history database for the weather conditions in past years. The results will help you decide how hot, cold, wet, or windy it might be!

Date:

Astronomy

Dec. 15, 2014 Rise Set
Actual Time 7:28 AM CST 4:23 PM CST
Civil Twilight 6:55 AM CST 4:56 PM CST
Nautical Twilight 6:19 AM CST 5:33 PM CST
Astronomical Twilight 5:44 AM CST 6:08 PM CST
Moon 12:35 AM CST (12/15) 12:34 PM CST (12/15)
Length of Visible Light 10h 01m
Length of Day
8h 55m
Last Quarter, 39% of the Moon is Illuminated
Dec 15
Last Quarter
Dec 21
New
Dec 28
First Quarter
Jan 4
Full
Jan 13
Last Quarter

Hourly Weather History & Observations

Time (CST) Temp. Windchill Dew Point Humidity Pressure Visibility Wind Dir Wind Speed Gust Speed Precip Events Conditions
12:08 AM 46.4 °F - 46.4 °F 100% 29.90 in 2.5 mi SE 2.3 mph - N/A   Overcast
12:28 AM 46.4 °F 45.2 °F 46.4 °F 100% 29.89 in 2.5 mi SSE 3.5 mph - N/A   Overcast
12:33 AM 46.4 °F 44.3 °F 46.4 °F 100% 29.89 in 4.0 mi SSE 4.6 mph - N/A   Overcast
12:38 AM 46.4 °F 44.3 °F 46.4 °F 100% 29.89 in 5.0 mi SSE 4.6 mph - N/A   Overcast
12:43 AM 46.4 °F 45.2 °F 46.4 °F 100% 29.88 in 6.0 mi SSE 3.5 mph - N/A   Overcast
12:48 AM 46.4 °F 45.2 °F 46.4 °F 100% 29.88 in 6.0 mi SSE 3.5 mph - N/A   Overcast
12:58 AM 45.7 °F - 45.7 °F 100% 29.91 in 6.0 mi SE 2.3 mph - N/A   Overcast
1:18 AM 46.4 °F - 46.4 °F 100% 29.88 in 6.0 mi Calm Calm - N/A   Overcast
1:23 AM 46.4 °F - 46.4 °F 100% 29.88 in 5.0 mi Calm Calm - N/A   Overcast
1:58 AM 45.7 °F 43.4 °F 45.7 °F 100% 29.90 in 8.0 mi South 4.6 mph - N/A   Overcast
2:03 AM 46.4 °F 44.3 °F 46.4 °F 100% 29.88 in 8.0 mi South 4.6 mph - N/A   Overcast
2:08 AM 46.4 °F 43.5 °F 46.4 °F 100% 29.89 in 8.0 mi South 5.8 mph - N/A   Overcast
2:23 AM 46.4 °F 42.4 °F 46.4 °F 100% 29.89 in 9.0 mi South 8.1 mph - N/A   Overcast
2:48 AM 46.4 °F 42.9 °F 46.4 °F 100% 29.88 in 9.0 mi South 6.9 mph - N/A   Overcast
2:53 AM 46.4 °F 42.9 °F 46.4 °F 100% 29.88 in 9.0 mi South 6.9 mph - N/A   Overcast
2:58 AM 46.0 °F 42.5 °F 46.0 °F 100% 29.90 in 9.0 mi South 6.9 mph - N/A   Overcast
3:03 AM 46.4 °F 43.5 °F 46.4 °F 100% 29.88 in 9.0 mi SSE 5.8 mph - N/A   Overcast
3:08 AM 46.4 °F 43.5 °F 46.4 °F 100% 29.88 in 9.0 mi SSE 5.8 mph - N/A   Overcast
3:48 AM 46.4 °F 44.3 °F 46.4 °F 100% 29.87 in 9.0 mi SSE 4.6 mph - N/A   Overcast
3:58 AM 46.0 °F 43.9 °F 46.0 °F 100% 29.88 in 9.0 mi SSE 4.6 mph - N/A   Overcast
4:53 AM 46.4 °F 43.5 °F 46.4 °F 100% 29.86 in 7.0 mi South 5.8 mph - N/A   Overcast
4:58 AM 45.9 °F 42.3 °F 45.9 °F 100% 29.88 in 7.0 mi South 6.9 mph - N/A   Overcast
5:03 AM 46.4 °F 42.9 °F 46.4 °F 100% 29.86 in 6.0 mi South 6.9 mph - N/A   Overcast
5:08 AM 46.4 °F 42.9 °F 46.4 °F 100% 29.86 in 5.0 mi South 6.9 mph - N/A   Overcast
5:13 AM 46.4 °F 43.5 °F 46.4 °F 100% 29.86 in 4.0 mi Variable 5.8 mph - N/A   Overcast
5:18 AM 46.4 °F 45.2 °F 46.4 °F 100% 29.86 in 4.0 mi South 3.5 mph - N/A   Overcast
5:28 AM 46.4 °F 44.3 °F 46.4 °F 100% 29.85 in 4.0 mi SSE 4.6 mph - N/A   Overcast
5:58 AM 45.3 °F 41.6 °F 45.3 °F 100% 29.87 in 4.0 mi SSE 6.9 mph - N/A   Overcast
6:23 AM 44.6 °F 42.2 °F 44.6 °F 100% 29.84 in 5.0 mi SSE 4.6 mph - N/A   Overcast
6:38 AM 44.6 °F 41.4 °F 44.6 °F 100% 29.83 in 5.0 mi SSE 5.8 mph - N/A   Overcast
6:58 AM 44.6 °F 40.2 °F 44.6 °F 100% 29.86 in 2.0 mi SSE 8.1 mph - N/A   Overcast
7:58 AM 44.6 °F 40.2 °F 44.6 °F 100% 29.85 in 2.0 mi SE 8.1 mph - N/A   Overcast
8:58 AM 44.6 °F 40.2 °F 44.6 °F 100% 29.84 in 2.0 mi SE 8.1 mph - N/A   Overcast
9:58 AM 44.6 °F 39.2 °F 44.6 °F 100% 29.83 in 2.0 mi SE 10.4 mph - N/A   Overcast
10:58 AM 44.6 °F 40.7 °F 44.6 °F 100% 29.82 in 3.0 mi SSE 6.9 mph - N/A   Overcast
11:58 AM 44.6 °F 40.2 °F 44.6 °F 100% 29.80 in 2.0 mi SE 8.1 mph - N/A Rain Light Rain
12:58 PM 44.6 °F 41.4 °F 44.6 °F 100% 29.75 in 2.0 mi ESE 5.8 mph - N/A Rain Light Rain
1:58 PM 46.4 °F 42.9 °F 46.4 °F 100% 29.74 in 2.2 mi ESE 6.9 mph - N/A Rain Light Rain
2:58 PM 46.4 °F 41.5 °F 46.4 °F 100% 29.73 in 2.5 mi ESE 10.4 mph - N/A Rain Light Rain
3:58 PM 44.6 °F 40.7 °F 44.6 °F 100% 29.73 in 3.0 mi East 6.9 mph - N/A Rain Light Rain
4:58 PM 44.6 °F 38.8 °F 44.6 °F 100% 29.73 in 4.0 mi East 11.5 mph - N/A Rain Light Rain
5:58 PM 44.6 °F 41.4 °F 44.6 °F 100% 29.74 in 5.0 mi ESE 5.8 mph - N/A   Light Drizzle
6:58 PM 42.8 °F 39.3 °F 42.8 °F 100% 29.73 in 5.0 mi East 5.8 mph - N/A Rain Light Rain
7:58 PM 42.8 °F 39.3 °F 42.8 °F 100% 29.72 in 5.0 mi East 5.8 mph - N/A Rain Light Rain
8:58 PM 42.8 °F 39.3 °F 42.8 °F 100% 29.71 in 5.0 mi East 5.8 mph - N/A Rain Light Rain
9:58 PM 42.8 °F 40.1 °F 42.8 °F 100% 29.70 in 5.0 mi East 4.6 mph - N/A Rain Light Rain
10:58 PM 42.8 °F 40.1 °F 42.8 °F 100% 29.70 in 5.0 mi East 4.6 mph - N/A   Light Drizzle
11:42 PM 42.8 °F - 42.8 °F 100% 29.66 in 6.0 mi Calm Calm - N/A Rain Light Rain
11:58 PM 42.1 °F - 42.1 °F 100% 29.69 in 4.0 mi ENE 2.3 mph - 0.01 in Rain Light Rain